Regional Weather Roundup
Issued by NWS

Home | Current Version | Previous Version | Text Only | Print | Product List | Glossary Off
Versions: 1 2 3 4 5 6 7 8 9 10 11 12 13 14 15 16 17 18 19 20 21 22 23 24 25 26 27 28 29 30 31 32 33 34 35 36 37 38 39 40 41 42 43 44 45 46 47 48 49 50

000
ASUS43 KMPX 260410
RWRMN
WEATHER ROUNDUP FOR MINNESOTA
NATIONAL WEATHER SERVICE TWIN CITIES/CHANHASSEN MN
1100 PM CDT MON JUL 25 2016


NOTE: "FAIR" INDICATES FEW OR NO CLOUDS BELOW 12,000 FEET WITH NO
SIGNIFICANT WEATHER AND/OR OBSTRUCTIONS TO VISIBILITY. N/A MEANS
CURRENT SKY AND/OR WEATHER CONDITIONS ARE NOT AVAILABLE.

MNZ060>063-068>070-260500-
   Twin Cities Metro

CITY           SKY/WX    TMP DP  RH WIND       PRES   REMARKS
TWIN CITIES    CLEAR     80  64  58 SW3       30.03S
ST PAUL        CLEAR     73  66  78 S3        30.03S
CRYSTAL        CLEAR     74  63  68 CALM      30.02S
BLAINE         CLEAR     73  66  78 CALM      30.03S
LAKEVILLE      CLEAR     70  68  94 CALM      30.05R
EDEN PRAIRIE   CLEAR     76  65  68 S3        30.03S
LAKEVILLE      CLEAR     70  68  94 CALM      30.05R
SOUTH ST PAUL  CLEAR     74  65  74 CALM      30.03S
LAKE ELMO      FAIR      70  66  88 CALM      30.04S
$$
MNZ001>005-007-008-013>017-022>024-027-028-260500-
   Northwest Minnesota

CITY           SKY/WX    TMP DP  RH WIND       PRES   REMARKS
BEMIDJI        PTCLDY    72  64  78 SE5       29.98S
HALLOCK        CLOUDY    70  66  88 CALM      29.94R
ROSEAU         CLOUDY    70  64  83 CALM      29.96S
WARROAD        CLOUDY    68  64  88 CALM      29.97R FOG
THIEF RVR FALL MOCLDY    74  68  81 N8        29.95S
CROOKSTON      PTCLDY    75  66  73 E6        29.92R
FOSSTON        CLEAR     72  66  83 SE6       29.95F
DETROIT LAKES  CLEAR     73  66  78 S6        29.99S
MOORHEAD       PTCLDY    75  66  73 S8        29.93S
PARK RAPIDS    CLEAR     74  67  78 S8        29.99S
MAHNOMEN       MOCLDY    74  65  75 S7        29.95S
$$
MNZ006-009>011-018-025>026-260500-
   North Central Minnesota

CITY           SKY/WX    TMP DP  RH WIND       PRES   REMARKS
BAUDETTE       CLEAR     66  64  93 CALM      29.96S
FLAG ISLAND    CLEAR     73  63  68 NW5       29.94S
INTL FALLS     CLEAR     63  60  90 CALM      29.96S
WASKISH        PTCLDY    66  64  94 CALM      29.96F
BIG FORK       CLEAR     64  63  94 CALM      29.99S
LONGVILLE      CLEAR     66  64  94 CALM      29.99F
GRAND RAPIDS   CLEAR     70  64  81 S3        30.02S
ORR            CLEAR     66  61  82 CALM      29.96S
COOK           CLEAR     64  63  94 CALM      29.99S
WALKER         FAIR      70  65  83 SE3       29.99S
$$
MNZ012-019>021-037-260500-
   Northeast Minnesota

CITY           SKY/WX    TMP DP  RH WIND       PRES   REMARKS
DULUTH         CLEAR     69  63  81 W7        30.01R
ELY            CLEAR     66  61  82 SW5       29.99S
HIBBING        CLEAR     62  61  96 CALM      30.00S
EVELETH        CLEAR     63  61  94 CALM      30.01S
DULUTH HARBOR  CLEAR     73  68  83 SW8       29.98R
TWO HARBORS    CLEAR     72  64  78 NW3       29.97S
SILVER BAY     CLEAR     68  63  83 CALM      29.96S
GRAND MARAIS     N/A     57  56  96 SW3       29.94S
G MARAIS ARPRT CLEAR     61  55  82 CALM      30.01S
$$
MNZ029>031-032-039>041-046>048-054>057-064-260500-
   West Central Minnesota

CITY           SKY/WX    TMP DP  RH WIND       PRES   REMARKS
FERGUS FALLS   CLEAR     73  64  73 S9        29.98S
WHEATON        CLEAR     75  68  78 SE10G16   29.98S
MORRIS         CLEAR     70  66  88 S7        29.99S
ALEXANDRIA     PTCLDY    75  66  73 S9        30.02F
ELBOW LAKE     FAIR      71  65  80 S10       29.99S
WADENA         CLEAR     70  64  83 S3        29.99F
GLENWOOD       CLEAR     68  66  94 S7        30.03S
APPLETON       CLEAR     75  63  64 S6        30.00S
BENSON         CLEAR     72  64  78 S7        30.01S
ORTONVILLE     CLEAR     72  64  78 S7        30.00S
MADISON        CLEAR     70  64  83 S8        30.02S
WILLMAR        FAIR      72  66  83 CALM      30.05S
$$
MNZ033>034-036-042>043-049>051-058-059-260500-
   Central Minnesota

CITY           SKY/WX    TMP DP  RH WIND       PRES   REMARKS
ST CLOUD       CLEAR     70  68  93 S3        30.02S
SAUK CENTRE    FAIR      69  66  90 S6        30.03S
PAYNESVILLE    CLEAR     73  66  80 S5        30.04S
AITKIN         CLEAR     70  63  78 CALM      30.00S
PINE RIVER     CLEAR     68  64  88 CALM      30.03F
BRAINERD       CLEAR     69  65  86 S3        30.01S
STAPLES        CLEAR     70  64  83 S6        30.00F
LONG PRAIRIE   FAIR      68  64  88 SE5       30.03S
LITTLE FALLS   CLEAR     70  63  78 CALM      30.02S
LITCHFIELD     CLEAR     73  72  94 CALM      30.05R
BUFFALO        CLEAR     73  66  78 CALM      30.04S
MAPLE LAKE     CLEAR     71  69  94 S3        30.05R
HUTCHINSON     CLOUDY    72  69  92 CALM      30.06R
$$
MNZ037-044-045-052-053-260500-
   East Central Minnesota

CITY           SKY/WX    TMP DP  RH WIND       PRES   REMARKS
PRINCETON      CLEAR     72  66  83 CALM      30.03R
MORA           CLEAR     68  63  83 CALM      30.04S
CAMBRIDGE      CLEAR     72  63  73 CALM      30.01S
RUSH CITY      CLEAR     67  65  93 CALM      30.03R
MOOSE LAKE     CLEAR     64  64 100 CALM      30.00R
HINCKLEY       FAIR      66  66 100 CALM      30.02R
CLOQUET        CLEAR     72  61  68 SW6       30.01S
MCGREGOR       CLEAR     70  64  83 CALM      30.02S
$$
MNZ071>073-080-081-089-090-097-098-260500-
   Southwest Minnesota

CITY           SKY/WX    TMP DP  RH WIND       PRES   REMARKS
MONTEVIDEO     CLEAR     73  66  78 SW6       30.04S
GRANITE FALLS  CLEAR     70  68  92 S7        30.05S
CANBY          PTCLDY    73  64  74 S6        30.05R
MARSHALL       CLEAR     72  66  81 S6        30.05S
REDWOOD FALLS  CLEAR     73  65  75 S7        30.04R
OLIVIA         CLEAR     72  64  78 S5        30.04S
PIPESTONE      CLEAR     70  64  83 S3        30.09R
WINDOM         CLEAR     70  66  88 CALM      30.08S
WORTHINGTON    CLEAR     71  65  81 S7        30.10R
JACKSON        CLEAR     72  64  78 S5        30.10R
TRACY          CLEAR     74  67  77 S7        30.07R
SLAYTON        CLEAR     69  64  86 CALM      30.10R
$$
MNZ065>067-074>077-082>085-091>093-260500-
   South Central Minnesota

CITY           SKY/WX    TMP DP  RH WIND       PRES   REMARKS
MANKATO        CLEAR     73  64  73 S6        30.06R
NEW ULM        CLEAR     72  68  88 S3        30.06R
ST JAMES       CLEAR     68  63  83 CALM      30.07S
FAIRMONT       CLEAR     72  64  78 SE3       30.07R
GLENCOE        CLEAR     72  69  91 CALM      30.04S
FARIBAULT      CLEAR     66  66 100 CALM      30.06S
OWATONNA       CLEAR     68  64  88 CALM      30.07S
WASECA         CLEAR     68  64  88 CALM      30.08S
ALBERT LEA     CLEAR     70  66  88 CALM      30.08S
$$
MNZ078>079-086>088-094>096-260500-
   Southeast Minnesota

CITY           SKY/WX    TMP DP  RH WIND       PRES   REMARKS
ROCHESTER      CLEAR     69  66  90 W5        30.08R
RED WING       CLEAR     70  66  88 CALM      30.03S
STANTON        CLEAR     68  64  88 CALM      30.04R
DODGE CENTER   PTCLDY    66  61  82 SW3       30.08S
WINONA         CLEAR     70  64  83 CALM      30.05R
AUSTIN         CLEAR     68  64  88 CALM      30.08S
PRESTON        CLEAR     69  64  84 W3        30.09R
$$
ABBREVIATIONS USED IN REMARKS
   TC - TEMPERATURES IN CELSIUS
  WCI - WIND CHILL INDEX
   HX - HEAT INDEX
  VSB - VISIBILITY
$$




USA.gov is the U.S. government's official web portal to all federal, state and local government web resources and services.